Regional Weather Roundup
Issued by NWS Charleston, SC

Current Version | Previous Version | Text Only | Print | Product List | Glossary Off
Versions: 1 2 3 4 5 6 7 8 9 10 11 12 13 14 15 16 17 18 19 20 21 22 23 24 25 26 27 28 29 30 31 32 33 34 35 36 37 38 39 40 41 42 43 44 45 46 47 48 49 50

000
ASUS42 KCHS 011525
RWRCHS

REGIONAL WEATHER ROUNDUP
NATIONAL WEATHER SERVICE CHARLESTON SC
1100 AM EDT FRI AUG 01 2014

NOTE: "FAIR" INDICATES FEW OR NO CLOUDS BELOW 12,000 FEET WITH NO
SIGNIFICANT WEATHER AND/OR OBSTRUCTIONS TO VISIBILITY.

NOT ALL STATIONS ARE QUALITY CONTROLLED BY THE NATIONAL
WEATHER SERVICE. USE DATA WITH CAUTION...ESPECIALLY
DEWPOINT OBSERVATIONS.

SCZ027-030-031-034>040-042>050-011600-
...SOUTH CAROLINA...

CITY           SKY/WX    TMP DP  RH WIND       PRES   REMARKS
N CHARLESTON   PTSUNNY   86  75  69 NE7       30.02S HX  95
WATERFRONT PRK   N/A     84 N/A N/A E3          N/A
FORT JOHNSON   NOT AVBL
MOUNT PLEASANT FAIR      82  77  83 CALM      30.03R HX  91
JOHNS ISLAND   PTSUNNY   82  70  65 SE6       30.02S
PINOPOLIS        N/A     90  75  62 CALM      29.94S HX 100
MONCKS CORNER  NOT AVBL
SUMMERVILLE    FAIR      86  73  66 CALM      30.03S HX  93
BEAUFORT MCAS  PTSUNNY   84  75  74 NE8       30.01S HX  92
BEAUFORT ARPT  FAIR      82  77  83 NE7       30.01S HX  91
HILTON HEAD IS PTSUNNY   81  75  83 N9        30.02S
GEORGETOWN     NOT AVBL
WALTERBORO     MOSUNNY   86  73  66 NW6       30.03S HX  93
ORANGEBURG     CLOUDY    77  71  82 N8        30.05S
BARNWELL       CLOUDY    75  72  88 N7        30.06S
AIKEN          FAIR      73  72  94 NE5       30.10S
MANNING        FAIR      84  81  89 CALM      30.03S HX  98
KINGSTREE      NOT AVBL
COLUMBIA       PTSUNNY   78  68  71 VRB3      30.06S
SUMTER         CLOUDY    75  73  94 NW5       30.04S
FLORENCE       CLOUDY    79  73  82 E6        30.04S
MYRTLE BEACH   PTSUNNY   81  73  78 S15       30.05R
N MYRTLE BEACH CLOUDY    78  73  84 S7        30.05R

$$

GAZ063-065-086>088-099>101-113>116-118-119-134-136>141-150-011600-
...GEORGIA...

CITY           SKY/WX    TMP DP  RH WIND       PRES   REMARKS
SAVANNAH ARPT  CLOUDY    82  75  79 N6        30.02R
HUNTER AAF     PTSUNNY   85  77  77 N7        29.99S HX  94
FORT STEWART   PTSUNNY   81  75  83 N7        30.00S
STATESBORO     NOT AVBL
SYLVANIA       CLOUDY    77  76  95 N5        30.04F
CLAXTON        CLOUDY    81  79  94 CALM      30.02S FOG
THOMSON        CLOUDY    71  71 100 N6        30.13R
AUGUSTA-BUSH   CLOUDY    75  68  78 NE7       30.06R
AUGUSTA-DANIEL CLOUDY    76  68  76 NE7       30.08R
SWAINSBORO     CLOUDY    77  77 100 NE8       30.05S
VIDALIA          N/A     77  73  88 N8        30.03S
ALMA           PTSUNNY   86  74  67 CALM      30.00S HX  94
WAYCROSS       MOSUNNY   89  78  70 CALM      29.99F HX 103
JESUP          CLOUDY    88  79  74 E3        30.00S HX 102
BRUNSWICK      PTSUNNY   86  72  62 CALM      30.00S HX  92
SAINT SIMONS   PTSUNNY   85  75  72 W3        29.99S HX  93

$$

SCZ027-028-034-036>038-045-046-048>050-GAZ119-141-011600-
...LAKE AND SUPPLEMENTAL COASTAL OBSERVATIONS...

STATION/POSITION TIME  TEMP    WIND        PRES    WAVE   SWELL
                       AIR SEA DIR/SP/G            HT/PER HT/PER/DIR
                 (UTC) (F)     (DEG/KT/KT) (MB)    (FT/S) (FT/S/D)
UPR LAKE MARION  NOT AVBL
WINYAH BAY       1500   80     140/  7     1016.0S
LAKE MURRAY      1400   72      CALM  /  5 1017.6S
ACE BASIN NERRS  1500   85      20/  3     1016.0F
FORT PULASKI     1500   82      30/  9/ 11 1016.0S
SAPELO ISLAND    1500   85      50/  4     1016.0S

$$

ANZ835-935-AMZ111-154-330-350-352-354-374-450-454-472-011600-
...C-MAN AND BUOY OBSERVATIONS...

STATION/POSITION TIME  TEMP    WIND        PRES    WAVE   SWELL
                       AIR SEA DIR/SP/G            HT/PER HT/PER/DIR
                 (UTC) (F)     (DEG/KT/KT) (MB)    (FT/S) (FT/S/D)
FOLLY BEACH CMAN 1500   79     160/  1/  2 1017.2R
BUOY 41004       1500   73 82  160/ 10/ 14 1017.2R   4/ 5   3/ 5
BUOY 41008       1500   82 85   CALM  /  2 1015.6R   3/ 5   3/140/ 5
5E ST. MARYS GA  1500      86                N/A     3/ 5
FRYING PAN BUOY  NOT AVBL
BUOY 41025       1500          VRB 14/ 17  1019.1S   4/ 5   2/120/ 7
CAPE LOOKOUT NC  1500   76     140/  9/ 10 1019.4R
BUOY 41002       1410   81 81  170/ 14/ 16 1019.9R   4/ 7   3/120/ 7
BUOY 41010       1500   83 84  140/  8/ 10 1016.9R   3/ 5   2/180/ 5
BUOY 41012       NOT AVBL
ST AUGUSTINE FL  1500   85     230/  7/ 10 1016.3R
CAPERS NEARSHORE 1400   79     130/  4/  6   N/A
FRIPP NEARSHORE  NOT AVBL


$$


USA.gov is the U.S. government's official web portal to all federal, state and local government web resources and services.